Tracking 32968 objects as of 17-Jan-2026
HD Live streaming from Space Station
objects crossing your sky now

BLOCK DM-SL R/B

Track BLOCK DM-SL R/B now!


NORAD ID: 39774
Int'l Code: 2014-030B
Perigee: 390.8 km
Apogee: 35,330.2 km
Inclination: 0.3 °
Period: 625.6 minutes
Semi major axis: 24231 km
RCS: Unknown
Launch date: May 26, 2014
Source: Sea Launch (SEAL)
Launch site: SEA LAUNCH (SEAL)

Note: This is a ROCKET BODY
Your satellite tracking list
Your tracking list is empty




NASA's NSSDC Master Catalog

Two Line Element Set (TLE):
1 39774U 14030B   26016.99480493 -.00000014  00000-0  34869-3 0  9998
2 39774   0.3023 304.1282 7209509 189.3607 315.0264  2.30161581 97459
Source of the keplerian elements: AFSPC